This is the latest recevied weather packets stored in our database for station/object AJ5AG. If no packets are shown the sender has not sent any weather packets the latest 10 day(s).
| Time | Temp. | Humidity | Pressure | Rain* | Wind** | Luminosity | Snow |
|---|---|---|---|---|---|---|---|
| 1777342296 | 26.67° C | 82% | 1013.6 hPa | 0 mm | - | 0 W/m² | - |
| 1777341993 | 27.22° C | 81% | 1013.7 hPa | 0 mm | - | 0 W/m² | - |
| 1777341690 | 27.22° C | 81% | 1013.5 hPa | 0 mm | - | 0 W/m² | - |
| 1777341386 | 27.22° C | 81% | 1013.3 hPa | 0 mm | - | 0 W/m² | - |
| 1777341082 | 27.22° C | 81% | 1013.6 hPa | 0 mm | - | 0 W/m² | - |
| 1777340779 | 27.22° C | 80% | 1013.7 hPa | 0 mm | - | 0 W/m² | - |
| 1777340478 | 27.22° C | 80% | 1013.6 hPa | 0 mm | - | 0 W/m² | - |
| 1777340175 | 27.22° C | 80% | 1013.5 hPa | 0 mm | - | 0 W/m² | - |
| 1777339871 | 27.22° C | 80% | 1013.5 hPa | 0 mm | - | 0 W/m² | - |
| 1777339569 | 27.22° C | 80% | 1013.4 hPa | 0 mm | - | 0 W/m² | - |
| 1777339266 | 27.22° C | 80% | 1013.3 hPa | 0 mm | - | 0 W/m² | - |
| 1777338964 | 27.22° C | 80% | 1013.2 hPa | 0 mm | - | 0 W/m² | - |
| 1777338661 | 27.78° C | 80% | 1012.9 hPa | 0 mm | - | 0 W/m² | - |
| 1777338359 | 27.78° C | 80% | 1013.3 hPa | 0 mm | - | 1 W/m² | - |
| 1777338055 | 27.78° C | 80% | 1013.1 hPa | 0 mm | - | 1 W/m² | - |
| 1777337751 | 27.78° C | 79% | 1013.2 hPa | 0 mm | - | 2 W/m² | - |
| 1777337449 | 27.78° C | 79% | 1013 hPa | 0 mm | - | 3 W/m² | - |
| 1777337145 | 28.33° C | 78% | 1013 hPa | 0 mm | - | 4 W/m² | - |
| 1777336843 | 28.33° C | 78% | 1012.8 hPa | 0 mm | - | 5 W/m² | - |
| 1777336542 | 28.33° C | 77% | 1012.8 hPa | 0 mm | - | 8 W/m² | - |
| 1777336239 | 28.33° C | 77% | 1012.9 hPa | 0 mm | - | 13 W/m² | - |
| 1777335937 | 28.89° C | 77% | 1012.8 hPa | 0 mm | - | 20 W/m² | - |
| 1777335633 | 28.89° C | 76% | 1012.8 hPa | 0 mm | - | 22 W/m² | - |
| 1777335331 | 28.89° C | 75% | 1012.9 hPa | 0 mm | - | 22 W/m² | - |
| 1777335028 | 29.44° C | 73% | 1012.7 hPa | 0 mm | - | 16 W/m² | - |
* Rain latest hour (hover to see other rain measurements)
** Current wind speed in m/s (hover to see current wind gust speed)